To NAV CANADA Home Page Login to a new session Search on AWWS site Feedback and Comments Disclaimer Vers la page française équivalente Tips FAQ What's new on the site To the Forecasts and Observations / NOTAM section To "File a Flight Plan" website Publications and other links Update of the User's profile FIC Telephone Numbers My Weather Data Folder Route Weather Data Regional Weather Data Local Weather Data To the Forecasts and Observations / NOTAM section
Request Generated 08/03/2015 at 15:07:30 UTC . Weather information available at that time is displayed.

METAR/TAF

KANGIQSUJUAQ/KANGIQSUJUAQ (WAKEHAM BAY)/QC    

METAR CYKG 031500Z 09010KT 0SM -DZ FG VV000 04/04 A2998 RMK FG8 SLP162=
SPECI CYKG 031440Z 09010KT 1/2SM -DZ FG VV006 RMK FG8=
METAR CYKG 031400Z 09010KT 1SM -DZ BR VV006 04/04 A2997 RMK FG8 SLP160=
METAR CYKG 031300Z 09010KT 1 1/2SM -DZ BR VV006 04/04 A2996 RMK FG8 SLP155=

CYKG - No TAF is issued for this station

Your time UTC time
Weather data provided by Environment Canada and NAV CANADA